TimeEET,TemperatureF,Dew PointF,Humidity,Sea Level PressureIn,VisibilityMPH,Wind Direction,Wind SpeedMPH,Gust SpeedMPH,PrecipitationIn,Events,Conditions,WindDirDegrees,DateUTC
12:00 AM,68.0,35.6,30,29.92,-9999.0,NW,9.2,-,N/A,,Clear,310,2013-11-15 22:00:00
1:00 AM,68.0,41.0,37,29.92,-9999.0,WNW,11.5,-,N/A,,Clear,300,2013-11-15 23:00:00
2:00 AM,52,46,74,29.92,6,NW,10.4,,,,,310,2013-11-16 00:00:00
2:00 AM,68.0,46.4,46,29.92,-9999.0,NW,10.4,-,N/A,,Clear,310,2013-11-16 00:00:00
3:00 AM,68.0,50.0,52,29.92,-9999.0,NW,11.5,-,N/A,,Clear,310,2013-11-16 01:00:00
4:00 AM,68.0,48.2,49,29.92,-9999.0,NNE,15.0,-,N/A,,Clear,20,2013-11-16 02:00:00
5:00 AM,68,44,30,29.93,6,North,16.1,,,,,10,2013-11-16 03:00:00
5:00 AM,68.0,44.6,43,29.92,-9999.0,North,16.1,-,N/A,,Clear,10,2013-11-16 03:00:00
6:00 AM,68.0,48.2,49,29.92,-9999.0,NW,18.4,-,N/A,,Clear,320,2013-11-16 04:00:00
7:00 AM,68.0,44.6,43,29.95,-9999.0,NNW,17.3,-,N/A,,Clear,330,2013-11-16 05:00:00
8:00 AM,71,45,28,29.98,6,NNW,16.1,,,,,340,2013-11-16 06:00:00
8:00 AM,71.6,44.6,38,29.98,-9999.0,NNW,16.1,-,N/A,,Clear,340,2013-11-16 06:00:00
9:00 AM,75.2,44.6,34,29.98,-9999.0,NNW,15.0,-,N/A,,Clear,340,2013-11-16 07:00:00
10:00 AM,78.8,42.8,28,29.98,-9999.0,North,16.1,-,N/A,,Clear,350,2013-11-16 08:00:00
11:00 AM,82.4,48.2,30,29.95,-9999.0,North,13.8,-,N/A,,Clear,10,2013-11-16 09:00:00
12:00 PM,84.2,50.0,30,29.92,-9999.0,North,16.1,-,N/A,,Clear,10,2013-11-16 10:00:00
1:00 PM,84.2,51.8,33,29.89,-9999.0,North,16.1,-,N/A,,Clear,10,2013-11-16 11:00:00
2:00 PM,81,55,31,29.88,6,NNE,16.1,,,,Clear,20,2013-11-16 12:00:00
2:00 PM,80.6,55.4,42,29.86,-9999.0,NNE,16.1,-,N/A,,Clear,20,2013-11-16 12:00:00
2:10 PM,80.6,55.4,42,29.86,-9999.0,NNE,16.1,-,N/A,,Clear,20,2013-11-16 12:10:00
3:00 PM,82.4,53.6,37,29.86,-9999.0,North,17.3,-,N/A,,Clear,10,2013-11-16 13:00:00
4:00 PM,80.6,53.6,39,29.86,-9999.0,North,20.7,-,N/A,,Clear,10,2013-11-16 14:00:00
5:00 PM,78,53,32,29.89,6,North,17.3,,,,Clear,0,2013-11-16 15:00:00
5:00 PM,78.8,53.6,42,29.89,-9999.0,North,17.3,-,N/A,,Clear,360,2013-11-16 15:00:00
6:00 PM,75.2,53.6,47,29.89,-9999.0,NNW,13.8,-,N/A,,Clear,340,2013-11-16 16:00:00
7:00 PM,73.4,50.0,44,29.89,-9999.0,NW,11.5,-,N/A,,Clear,320,2013-11-16 17:00:00
8:00 PM,73,43,23,29.92,6,NW,9.2,,,,Clear,320,2013-11-16 18:00:00
8:00 PM,73.4,42.8,33,29.92,-9999.0,NW,9.2,-,N/A,,Clear,320,2013-11-16 18:00:00
9:00 PM,69.8,42.8,38,29.92,-9999.0,NW,8.1,-,N/A,,Clear,310,2013-11-16 19:00:00
10:00 PM,69.8,39.2,33,29.92,-9999.0,WNW,6.9,-,N/A,,Clear,300,2013-11-16 20:00:00
11:00 PM,69,48,36,29.92,6,NW,13.8,,,,,310,2013-11-16 21:00:00
11:00 PM,69.8,48.2,46,29.92,-9999.0,NW,13.8,-,N/A,,Clear,310,2013-11-16 21:00:00